When you browse on this site, cookies collect data to enhance your experience and personalize the content and advertising you see.
Visit our Privacy Policy to learn more. By continuing to use the site, you agree to this use of cookies and data.
  • In Austria
  • List of Countries
  • For 7 days
  • Water Temperature
  • Satellite Maps
  • Weather Map
  • News
  • Weather Widgets
  • user-avatar
    Login

    Hourly Weather Qala i Naw

    Today, 20 April, Saturday

    Time Temperature Precipitation Wind Pressure Humidity
    00:00 +20°C° 0 mm 1 mps 680 mmHg 63%
    01:00 +18°C° 0 mm 2 mps 679 mmHg 67%
    02:00 +18°C° 0.1 mm 2 mps 679 mmHg 70%
    03:00 +17°C° 0.1 mm 2 mps 679 mmHg 72%
    04:00 +17°C° 0 mm 2 mps 679 mmHg 73%
    05:00 +17°C° 0.3 mm 2 mps 679 mmHg 72%
    06:00 +18°C° 0.3 mm 1 mps 679 mmHg 72%
    07:00 +18°C° 0.3 mm 1 mps 679 mmHg 71%
    08:00 +20°C° 0.3 mm 1 mps 679 mmHg 64%
    09:00 +20°C° 0.3 mm 2 mps 679 mmHg 57%
    10:00 +23°C° 0.3 mm 2 mps 679 mmHg 50%
    11:00 +25°C° 0.1 mm 3 mps 679 mmHg 46%
    12:00 +26°C° 0.1 mm 3 mps 679 mmHg 41%
    13:00 +28°C° 0.1 mm 4 mps 678 mmHg 37%
    14:00 +28°C° 0 mm 4 mps 678 mmHg 38%
    15:00 +28°C° 0 mm 4 mps 678 mmHg 40%
    16:00 +28°C° 0 mm 4 mps 677 mmHg 42%
    17:00 +26°C° 0 mm 3 mps 677 mmHg 50%
    18:00 +24°C° 0 mm 2 mps 677 mmHg 57%
    19:00 +23°C° 0 mm 1 mps 676 mmHg 65%
    20:00 +23°C° 0 mm 2 mps 676 mmHg 60%
    21:00 +23°C° 0 mm 2 mps 677 mmHg 54%
    22:00 +22°C° 0 mm 3 mps 677 mmHg 49%
    23:00 +21°C° 0 mm 3 mps 677 mmHg 49%

    Tomorrow, 21 April, Sunday

    Time Temperature Precipitation Wind Pressure Humidity
    00:00 +21°C° 0 mm 3 mps 677 mmHg 49%
    01:00 +20°C° 0 mm 3 mps 677 mmHg 49%
    02:00 +18°C° 0 mm 4 mps 677 mmHg 62%
    03:00 +16°C° 0 mm 5 mps 677 mmHg 76%
    04:00 +14°C° 0 mm 6 mps 678 mmHg 90%
    05:00 +13°C° 0 mm 5 mps 678 mmHg 90%
    06:00 +13°C° 0 mm 4 mps 679 mmHg 89%
    07:00 +12°C° 0 mm 3 mps 679 mmHg 88%
    08:00 +12°C° 0 mm 3 mps 679 mmHg 87%
    09:00 +12°C° 0 mm 3 mps 680 mmHg 86%
    10:00 +13°C° 0 mm 3 mps 680 mmHg 84%
    11:00 +13°C° 0 mm 3 mps 680 mmHg 84%
    12:00 +13°C° 0 mm 3 mps 680 mmHg 84%
    13:00 +13°C° 0 mm 4 mps 680 mmHg 84%
    14:00 +13°C° 0 mm 3 mps 680 mmHg 85%
    15:00 +13°C° 0 mm 3 mps 679 mmHg 86%
    16:00 +13°C° 0 mm 3 mps 679 mmHg 87%
    17:00 +13°C° 0 mm 3 mps 680 mmHg 87%
    18:00 +14°C° 0 mm 2 mps 680 mmHg 88%
    19:00 +14°C° 0 mm 2 mps 680 mmHg 88%
    20:00 +13°C° 0 mm 2 mps 681 mmHg 88%
    21:00 +13°C° 0 mm 1 mps 681 mmHg 89%
    22:00 +13°C° 0 mm 1 mps 681 mmHg 89%
    23:00 +13°C° 0 mm 1 mps 681 mmHg 90%

    Day after tomorrow, 22 April, Monday

    Time Temperature Precipitation Wind Pressure Humidity
    00:00 +13°C° 0 mm 1 mps 681 mmHg 91%
    01:00 +12°C° 0 mm 1 mps 681 mmHg 92%
    02:00 +12°C° 0 mm 1 mps 680 mmHg 92%
    03:00 +12°C° 0 mm 1 mps 680 mmHg 93%
    04:00 +11°C° 0 mm 1 mps 680 mmHg 93%
    05:00 +12°C° 0 mm 1 mps 680 mmHg 90%
    06:00 +13°C° 0 mm 1 mps 680 mmHg 86%
    07:00 +13°C° 0 mm 1 mps 680 mmHg 83%
    08:00 +15°C° 0 mm 2 mps 680 mmHg 77%
    09:00 +16°C° 0 mm 2 mps 680 mmHg 71%
    10:00 +18°C° 0 mm 3 mps 681 mmHg 65%
    11:00 +19°C° 0 mm 3 mps 680 mmHg 61%
    12:00 +20°C° 0 mm 3 mps 680 mmHg 56%
    13:00 +22°C° 0 mm 4 mps 680 mmHg 52%
    14:00 +22°C° 0 mm 4 mps 680 mmHg 51%
    15:00 +22°C° 0 mm 4 mps 680 mmHg 50%
    16:00 +23°C° 0 mm 4 mps 679 mmHg 48%
    17:00 +22°C° 0 mm 3 mps 679 mmHg 53%
    18:00 +21°C° 0 mm 2 mps 679 mmHg 59%
    19:00 +20°C° 0 mm 1 mps 679 mmHg 64%
    20:00 +20°C° 0 mm 1 mps 679 mmHg 63%
    21:00 +21°C° 0 mm 1 mps 679 mmHg 62%
    22:00 +20°C° 0 mm 2 mps 680 mmHg 61%
    23:00 +20°C° 0.1 mm 1 mps 679 mmHg 63%

    23 April, Tuesday

    Time Temperature Precipitation Wind Pressure Humidity
    00:00 +20°C° 0.1 mm 1 mps 679 mmHg 65%
    01:00 +19°C° 0.1 mm 1 mps 678 mmHg 67%
    02:00 +20°C° 0.2 mm 1 mps 678 mmHg 62%
    03:00 +19°C° 0.2 mm 2 mps 678 mmHg 57%
    04:00 +19°C° 0.2 mm 3 mps 678 mmHg 52%
    05:00 +20°C° 0.1 mm 3 mps 678 mmHg 49%
    06:00 +21°C° 0.1 mm 4 mps 678 mmHg 46%
    07:00 +23°C° 0.1 mm 4 mps 679 mmHg 44%
    08:00 +26°C° 0.1 mm 4 mps 679 mmHg 38%
    09:00 +28°C° 0.1 mm 4 mps 679 mmHg 32%
    10:00 +32°C° 0.1 mm 5 mps 680 mmHg 27%
    11:00 +33°C° 0 mm 5 mps 679 mmHg 25%
    12:00 +33°C° 0 mm 6 mps 679 mmHg 24%
    13:00 +34°C° 0 mm 7 mps 679 mmHg 22%
    14:00 +30°C° 1.9 mm 7 mps 678 mmHg 38%
    15:00 +26°C° 1.9 mm 7 mps 677 mmHg 53%
    16:00 +22°C° 1.9 mm 8 mps 676 mmHg 68%
    17:00 +21°C° 0.9 mm 6 mps 676 mmHg 72%
    18:00 +21°C° 0.9 mm 4 mps 677 mmHg 76%
    19:00 +20°C° 0.9 mm 2 mps 678 mmHg 80%
    20:00 +18°C° 2.3 mm 3 mps 678 mmHg 84%
    21:00 +15°C° 2.3 mm 4 mps 678 mmHg 88%
    22:00 +13°C° 2.3 mm 5 mps 678 mmHg 93%
    23:00 +12°C° 1.6 mm 5 mps 678 mmHg 92%

    24 April, Wednesday

    Time Temperature Precipitation Wind Pressure Humidity
    00:00 +10°C° 1.6 mm 5 mps 677 mmHg 92%
    01:00 +9°C° 1.6 mm 5 mps 677 mmHg 92%
    02:00 +8°C° 1.2 mm 5 mps 678 mmHg 92%
    03:00 +7°C° 1.2 mm 5 mps 678 mmHg 92%
    04:00 +6°C° 1.2 mm 5 mps 678 mmHg 93%
    05:00 +6°C° 1.5 mm 4 mps 679 mmHg 92%
    06:00 +6°C° 1.5 mm 4 mps 680 mmHg 91%
    07:00 +7°C° 1.5 mm 3 mps 680 mmHg 90%
    08:00 +7°C° 0.6 mm 3 mps 681 mmHg 90%
    09:00 +7°C° 0.6 mm 3 mps 681 mmHg 90%
    10:00 +8°C° 0.6 mm 3 mps 682 mmHg 90%
    11:00 +7°C° 0.3 mm 4 mps 682 mmHg 89%
    12:00 +7°C° 0.3 mm 4 mps 682 mmHg 88%
    13:00 +7°C° 0.3 mm 4 mps 682 mmHg 86%
    14:00 +7°C° 0.1 mm 4 mps 682 mmHg 83%
    15:00 +8°C° 0.1 mm 4 mps 682 mmHg 80%
    16:00 +8°C° 0.1 mm 4 mps 682 mmHg 77%
    17:00 +8°C° 0 mm 4 mps 682 mmHg 77%
    18:00 +8°C° 0 mm 4 mps 683 mmHg 76%
    19:00 +9°C° 0 mm 3 mps 683 mmHg 76%
    20:00 +8°C° 0 mm 3 mps 684 mmHg 76%
    21:00 +8°C° 0 mm 3 mps 684 mmHg 76%
    22:00 +8°C° 0 mm 2 mps 684 mmHg 77%
    23:00 +8°C° 0 mm 2 mps 684 mmHg 77%

    25 April, Thursday

    Time Temperature Precipitation Wind Pressure Humidity
    00:00 +7°C° 0 mm 2 mps 684 mmHg 78%
    01:00 +7°C° 0 mm 2 mps 684 mmHg 78%
    02:00 +7°C° 0 mm 2 mps 684 mmHg 80%
    03:00 +7°C° 0 mm 1 mps 684 mmHg 81%
    04:00 +7°C° 0 mm 1 mps 684 mmHg 83%
    05:00 +7°C° 0 mm 1 mps 684 mmHg 80%
    06:00 +7°C° 0 mm 1 mps 684 mmHg 78%
    07:00 +8°C° 0 mm 1 mps 684 mmHg 75%
    08:00 +8°C° 0 mm 2 mps 684 mmHg 72%
    09:00 +9°C° 0 mm 2 mps 684 mmHg 68%
    10:00 +10°C° 0 mm 3 mps 684 mmHg 64%
    11:00 +11°C° 0 mm 3 mps 684 mmHg 61%
    12:00 +12°C° 0 mm 4 mps 684 mmHg 58%
    13:00 +13°C° 0 mm 4 mps 683 mmHg 54%
    14:00 +13°C° 0 mm 4 mps 683 mmHg 53%
    15:00 +14°C° 0 mm 4 mps 683 mmHg 52%
    16:00 +14°C° 0 mm 4 mps 683 mmHg 51%
    17:00 +13°C° 0 mm 4 mps 683 mmHg 55%
    18:00 +12°C° 0 mm 3 mps 683 mmHg 58%
    19:00 +11°C° 0 mm 3 mps 683 mmHg 61%
    20:00 +12°C° 0 mm 2 mps 684 mmHg 63%
    21:00 +10°C° 0 mm 2 mps 684 mmHg 65%
    22:00 +9°C° 0 mm 2 mps 684 mmHg 66%
    23:00 +10°C° 0 mm 1 mps 683 mmHg 67%
    Show more